Regional Weather Roundup
Issued by NWS Cleveland, OH

Home | Current Version | Previous Version | Text Only | Print | Product List | Glossary Off
Versions: 1 2 3 4 5 6 7 8 9 10 11 12 13 14 15 16 17 18 19 20 21 22 23 24 25 26 27 28 29 30 31 32 33 34 35 36 37 38 39 40 41 42 43 44 45 46 47 48 49 50

000
ASUS41 KCLE 171002
RWRCLE
OHIO REGIONAL WEATHER ROUNDUP
NATIONAL WEATHER SERVICE CLEVELAND, OH
600 AM EDT WED SEP 17 2014

NOTE: "FAIR" INDICATES FEW OR NO CLOUDS BELOW 12,000 FEET WITH NO
SIGNIFICANT WEATHER AND/OR OBSTRUCTIONS TO VISIBILITY.

OHZ001>008-015>018-024>027-034-035-043-044-171100-
   NORTHWEST OHIO

CITY           SKY/WX    TMP DP  RH WIND       PRES   REMARKS
DEFIANCE       PTCLDY    43  40  89 CALM      30.08S FOG
FINDLAY        CLEAR     44  42  93 CALM      30.06S FOG
TOLEDO EXPRESS CLEAR     43  41  93 W3        30.07S
TOLEDO EXEC    CLEAR     46  41  82 CALM      30.08R
LIMA           CLEAR     45  43  93 S3        30.07S FOG
$$

OHZ009>014-019>023-028>033-038-089-171100-
   NORTHEAST OHIO

CITY           SKY/WX    TMP DP  RH WIND       PRES   REMARKS
CLE-HOPKINS    PTCLDY    46  43  89 CALM      30.08F
CLE-LAKEFRONT  MOCLDY    51  46  83 SE9       30.05S
CUY CO. ARPT   NOT AVBL
LORAIN-ELYRIA  CLEAR     48  43  82 SW5       30.08S
ASHTABULA      CLOUDY    48  46  93 CALM      30.07S
AKRON-CANTON   PTCLDY    48  44  86 CALM      30.07S
WOOSTER        FOG       43  41  93 CALM      30.08S VSB 1/2
MANSFIELD      PTCLDY    43  43 100 CALM      30.07S
YOUNGSTOWN     PTCLDY    42  41  96 CALM      30.07S FOG
$$

OHZ042-051>053-060>062-070>072-077>081-171100-
  SOUTHWEST OHIO

CITY           SKY/WX    TMP DP  RH WIND       PRES   REMARKS
CINC-COVINGTON MOCLDY    49  47  93 CALM      30.07F FOG
CINC-LUNKEN    CLOUDY    49  49 100 CALM      30.09S
HAMILTON       CLOUDY    47  46  97 CALM      30.09S
DAYTON         CLEAR     47  46  97 CALM      30.09S
WRIGHT-PAT AFB NOT AVBL
DAYTON GENERAL CLOUDY    49  48  97 CALM      30.07S
WILMINGTON     CLOUDY    48  47  96 CALM      30.07F FOG
$$

OHZ036-037-039>041-045>050-054>059-063>069-073>076-082>088-171100-
  CENTRAL AND SOUTHEAST OHIO

CITY           SKY/WX    TMP DP  RH WIND       PRES   REMARKS
COLUMBUS       CLOUDY    52  47  83 CALM      30.07F
OSU AIRPORT    CLOUDY    50  48  93 CALM      30.07F
BOLTON FIELD   NOT AVBL
RICKENBACK AFB CLOUDY    47  46  96 CALM      30.07S
NEWARK         CLOUDY    48  46  93 NE3       30.07F FOG
MARION         CLEAR     42  39  89 CALM      30.08S FOG
LANCASTER      CLOUDY    48  46  93 CALM      30.07F FOG
ZANESVILLE     MOCLDY    47  45  93 CALM      30.07S FOG
NEW PHILLY     FOG       49  48  97 CALM      30.08S VSB 1/4
$$



USA.gov is the U.S. government's official web portal to all federal, state and local government web resources and services.